Location: Friaudour
(46.0460°N, 1.2873°E)
Time: 14:56:49
(UTC+00:00)

Spot 4 Rocket - Pass Details

Date: 26 October 2020
Orbit: 776 x 781 km, 98.7° (Epoch: 29 November)

Event Time Altitude Azimuth Distance (km) Brightness Sun altitude
Rises 04:08:41 0° 6° (N) 3,270 7.4 -24.6°
Reaches altitude 10° 04:11:11 10° 358° (N) 2,338 6.5 -24.2°
Enters shadow 04:13:48 25° 335° (NNW) 1,526 5.3 -23.7°
